TimeCDT,TemperatureF,Dew PointF,Humidity,Sea Level PressureIn,VisibilityMPH,Wind Direction,Wind SpeedMPH,Gust SpeedMPH,PrecipitationIn,Events,Conditions,WindDirDegrees,DateUTC
12:56 AM,55.0,53.1,93,29.93,10.0,West,5.8,-,N/A,,Mostly Cloudy,270,2013-05-07 05:56:00
1:56 AM,55.0,53.1,93,29.91,10.0,West,3.5,-,N/A,,Mostly Cloudy,270,2013-05-07 06:56:00
2:10 AM,55.4,53.6,94,29.92,10.0,West,4.6,-,N/A,,Overcast,260,2013-05-07 07:10:00
2:27 AM,55.4,53.6,94,29.92,10.0,West,4.6,-,N/A,,Overcast,280,2013-05-07 07:27:00
2:56 AM,55.9,54.0,93,29.91,10.0,West,3.5,-,N/A,,Overcast,260,2013-05-07 07:56:00
3:56 AM,55.9,54.0,93,29.92,9.0,WSW,3.5,-,N/A,,Overcast,250,2013-05-07 08:56:00
4:56 AM,55.9,54.0,93,29.93,8.0,West,4.6,-,N/A,,Overcast,270,2013-05-07 09:56:00
5:56 AM,55.9,55.0,97,29.95,8.0,West,3.5,-,N/A,,Overcast,270,2013-05-07 10:56:00
6:31 AM,55.4,53.6,94,29.96,9.0,West,4.6,-,N/A,,Scattered Clouds,280,2013-05-07 11:31:00
6:45 AM,55.4,53.6,94,29.97,10.0,WNW,4.6,-,N/A,,Mostly Cloudy,300,2013-05-07 11:45:00
6:56 AM,55.9,54.0,93,29.98,10.0,NNW,5.8,-,N/A,,Mostly Cloudy,330,2013-05-07 11:56:00
7:48 AM,57.2,55.4,94,29.99,10.0,West,4.6,-,N/A,,Overcast,270,2013-05-07 12:48:00
7:56 AM,57.9,54.0,87,29.99,10.0,WNW,6.9,-,N/A,,Overcast,290,2013-05-07 12:56:00
8:05 AM,57.2,53.6,88,30.00,10.0,WNW,4.6,-,N/A,,Mostly Cloudy,300,2013-05-07 13:05:00
8:22 AM,59.0,53.6,82,30.00,10.0,WNW,5.8,-,N/A,,Scattered Clouds,290,2013-05-07 13:22:00
8:56 AM,62.1,54.0,75,30.00,10.0,Variable,6.9,-,N/A,,Scattered Clouds,0,2013-05-07 13:56:00
9:06 AM,62.6,53.6,72,30.00,10.0,NW,5.8,-,N/A,,Mostly Cloudy,310,2013-05-07 14:06:00
9:36 AM,62.6,53.6,72,30.02,10.0,Variable,4.6,-,N/A,,Overcast,0,2013-05-07 14:36:00
9:56 AM,62.1,54.0,75,30.01,10.0,WNW,5.8,-,N/A,,Overcast,290,2013-05-07 14:56:00
10:56 AM,64.0,54.0,70,30.01,10.0,West,6.9,-,N/A,,Mostly Cloudy,270,2013-05-07 15:56:00
11:27 AM,66.2,53.6,64,30.01,10.0,Variable,5.8,-,N/A,,Scattered Clouds,0,2013-05-07 16:27:00
11:56 AM,66.9,53.1,61,30.00,10.0,West,10.4,16.1,N/A,,Mostly Cloudy,280,2013-05-07 16:56:00
12:56 PM,69.1,53.1,57,29.99,10.0,West,10.4,-,N/A,,Scattered Clouds,280,2013-05-07 17:56:00
1:56 PM,69.1,52.0,54,29.98,10.0,West,9.2,-,N/A,,Partly Cloudy,280,2013-05-07 18:56:00
2:56 PM,72.0,51.1,48,29.98,10.0,WNW,9.2,-,N/A,,Mostly Cloudy,300,2013-05-07 19:56:00
3:56 PM,73.0,51.1,46,29.97,10.0,West,8.1,17.3,N/A,,Scattered Clouds,280,2013-05-07 20:56:00
4:56 PM,73.0,50.0,44,29.97,10.0,WNW,8.1,17.3,N/A,,Clear,300,2013-05-07 21:56:00
5:56 PM,71.1,52.0,51,29.97,10.0,NW,9.2,-,N/A,,Clear,320,2013-05-07 22:56:00
6:56 PM,70.0,50.0,49,29.98,10.0,NW,4.6,-,N/A,,Clear,320,2013-05-07 23:56:00
7:56 PM,63.0,54.0,72,29.99,10.0,Calm,Calm,-,N/A,,Clear,0,2013-05-08 00:56:00
8:56 PM,57.9,54.0,87,30.01,10.0,Calm,Calm,-,N/A,,Clear,0,2013-05-08 01:56:00
9:56 PM,57.9,54.0,87,30.03,10.0,Calm,Calm,-,N/A,,Clear,0,2013-05-08 02:56:00
10:56 PM,55.0,52.0,89,30.03,10.0,North,4.6,-,N/A,,Clear,10,2013-05-08 03:56:00
11:56 PM,54.0,51.1,90,30.03,10.0,Calm,Calm,-,N/A,,Clear,0,2013-05-08 04:56:00